UAE724 HAAB-OMDB

Flight info

Callsign UAE724
Flight time N/A
Altitude 37000
Route MIWAS2A MIWAS UT667 DWA UW885 ARSHI/N0489F380 UW885 HARGA/N0493F370 UB404 MERMI/N0487F390 UB404 DEMGO B404 RIGAM B400 DAXAM Y414 DEDSO R401 VELIK/N0488F400 R401 MUSAP/N0505F350 R401 PEDOG Q308 KIPOK Q568 IMPED
Aircraft B77W/H-SDE1E2E3FGHIJ2J3J4J5M1RWXY/LB1D1

Departure

Time 2026-05-04 10:14
Airport Addis Ababa Bole International Airport (HAAB)

Arrival

Time N/A
Airport Dubai International Airport (OMDB)
Time Latitude Longitude Altitude Speed Heading
2026-05-04 10:00 8.98220 38.79595 7626 ft 0 kts 345°
2026-05-04 10:05 8.98214 38.79596 7626 ft 2 kts 343°
2026-05-04 10:06 8.98195 38.79603 7630 ft 3 kts 336°
2026-05-04 10:06 8.98176 38.79612 7631 ft 3 kts 327°
2026-05-04 10:06 8.98160 38.79624 7631 ft 3 kts 312°
2026-05-04 10:08 8.98152 38.79659 7625 ft 0 kts 218°
2026-05-04 10:09 8.98145 38.79654 7625 ft 3 kts 217°
2026-05-04 10:09 8.98116 38.79625 7625 ft 9 kts 234°
2026-05-04 10:09 8.98090 38.79556 7625 ft 12 kts 252°
2026-05-04 10:10 8.98062 38.79463 7625 ft 15 kts 253°
2026-05-04 10:10 8.98029 38.79351 7625 ft 18 kts 253°
2026-05-04 10:10 8.97993 38.79227 7625 ft 18 kts 253°
2026-05-04 10:10 8.97957 38.79104 7625 ft 18 kts 253°
2026-05-04 10:11 8.97928 38.79005 7625 ft 18 kts 253°
2026-05-04 10:11 8.97893 38.78885 7626 ft 18 kts 253°
2026-05-04 10:11 8.97855 38.78768 7626 ft 11 kts 239°
2026-05-04 10:12 8.97786 38.78756 7626 ft 11 kts 161°
2026-05-04 10:12 8.97712 38.78779 7626 ft 11 kts 163°
2026-05-04 10:12 8.97637 38.78802 7626 ft 11 kts 163°
2026-05-04 10:12 8.97580 38.78847 7626 ft 11 kts 100°
2026-05-04 10:13 8.97585 38.78874 7626 ft 0 kts 73°
2026-05-04 10:13 8.97608 38.78953 7625 ft 45 kts 73°
2026-05-04 10:13 8.97788 38.79571 7624 ft 137 kts 73°
2026-05-04 10:13 8.98109 38.80744 7862 ft 194 kts 76°
2026-05-04 10:14 8.98452 38.82055 9007 ft 195 kts 76°
2026-05-04 10:14 8.98798 38.83406 10028 ft 204 kts 75°
2026-05-04 10:16 9.02691 38.97146 12249 ft 377 kts 73°
2026-05-04 10:16 9.03438 38.99694 13260 ft 379 kts 73°
2026-05-04 10:16 9.04194 39.02275 14077 ft 386 kts 73°
2026-05-04 10:16 9.04954 39.04890 14866 ft 390 kts 73°
2026-05-04 10:17 9.05667 39.07552 15627 ft 395 kts 75°
2026-05-04 10:17 9.06335 39.10174 16346 ft 401 kts 75°
2026-05-04 10:19 9.11370 39.30068 21042 ft 439 kts 75°
2026-05-04 10:19 9.12141 39.33084 21606 ft 445 kts 76°
2026-05-04 10:19 9.12922 39.36141 22100 ft 452 kts 76°
2026-05-04 10:19 9.13715 39.39246 22657 ft 458 kts 76°
2026-05-04 10:20 9.14516 39.42385 23200 ft 463 kts 76°
2026-05-04 10:20 9.15315 39.45516 23696 ft 468 kts 76°
2026-05-04 10:20 9.16132 39.48723 24168 ft 472 kts 76°
2026-05-04 10:20 9.16953 39.51946 24665 ft 474 kts 76°
2026-05-04 10:21 9.17778 39.55186 25165 ft 476 kts 76°
2026-05-04 10:21 9.18608 39.58443 25628 ft 479 kts 76°
2026-05-04 10:21 9.19444 39.61726 26063 ft 484 kts 76°
2026-05-04 10:21 9.20288 39.65041 26493 ft 487 kts 76°
2026-05-04 10:22 9.21985 39.71713 27383 ft 492 kts 76°
2026-05-04 10:22 9.22842 39.75084 27818 ft 495 kts 76°
2026-05-04 10:22 9.23702 39.78468 28205 ft 498 kts 76°
2026-05-04 10:23 9.24569 39.81884 28600 ft 501 kts 76°
2026-05-04 10:23 9.25442 39.85323 28870 ft 506 kts 76°
2026-05-04 10:25 9.31584 40.09560 31497 ft 509 kts 75°
2026-05-04 10:25 9.32460 40.13025 31930 ft 507 kts 75°
2026-05-04 10:25 9.33334 40.16483 32402 ft 505 kts 75°
2026-05-04 10:25 9.34203 40.19919 32855 ft 503 kts 75°
2026-05-04 10:26 9.35069 40.23350 33333 ft 501 kts 75°
2026-05-04 10:26 9.35932 40.26765 33779 ft 500 kts 75°
2026-05-04 10:26 9.36791 40.30171 34150 ft 499 kts 75°
2026-05-04 10:26 9.37646 40.33557 34582 ft 495 kts 75°
2026-05-04 10:27 9.38485 40.36886 35022 ft 493 kts 75°
2026-05-04 10:27 9.39327 40.40226 35544 ft 488 kts 76°
2026-05-04 10:27 9.40154 40.43551 35986 ft 485 kts 77°
2026-05-04 10:27 9.40843 40.46881 36410 ft 482 kts 79°
2026-05-04 10:28 9.41428 40.50218 36743 ft 482 kts 81°
2026-05-04 10:28 9.42519 40.56968 36861 ft 487 kts 81°
2026-05-04 10:29 9.43630 40.63690 36859 ft 481 kts 80°
2026-05-04 10:29 9.44772 40.70334 36884 ft 477 kts 80°
2026-05-04 10:30 9.45924 40.76950 36900 ft 477 kts 80°
2026-05-04 10:30 9.47078 40.83583 36904 ft 479 kts 80°
2026-05-04 10:31 9.48233 40.90243 36908 ft 482 kts 80°
2026-05-04 10:32 9.52273 41.13630 36905 ft 482 kts 80°
2026-05-04 10:33 9.53416 41.20259 36921 ft 480 kts 80°
2026-05-04 10:33 9.54562 41.26918 36934 ft 479 kts 80°
2026-05-04 10:34 9.55706 41.33570 36906 ft 479 kts 80°
2026-05-04 10:34 9.56849 41.40225 36925 ft 479 kts 80°
2026-05-04 10:35 9.57989 41.46876 36934 ft 479 kts 80°
2026-05-04 10:35 9.59128 41.53524 36938 ft 478 kts 80°
2026-05-04 10:36 9.60266 41.60174 36938 ft 478 kts 80°
2026-05-04 10:36 9.61401 41.66812 36910 ft 478 kts 80°
2026-05-04 10:37 9.62529 41.73423 36915 ft 479 kts 80°
2026-05-04 10:37 9.63666 41.80087 36921 ft 480 kts 80°
2026-05-04 10:39 9.63514 42.00281 36939 ft 482 kts 93°
2026-05-04 10:39 9.63300 42.03670 36938 ft 482 kts 93°
2026-05-04 10:40 9.62892 42.10445 36940 ft 481 kts 93°
2026-05-04 10:40 9.62499 42.17211 36944 ft 480 kts 93°
2026-05-04 10:41 9.62108 42.23962 36954 ft 479 kts 92°
2026-05-04 10:41 9.61715 42.30698 36949 ft 477 kts 92°
2026-05-04 10:42 9.61321 42.37401 36950 ft 476 kts 92°
2026-05-04 10:42 9.60929 42.44057 36933 ft 477 kts 93°
2026-05-04 10:43 9.60533 42.50778 36938 ft 478 kts 93°
2026-05-04 10:45 9.58925 42.77740 36938 ft 479 kts 93°
2026-05-04 10:45 9.58521 42.84472 36940 ft 478 kts 93°
2026-05-04 10:46 9.58118 42.91165 36944 ft 479 kts 92°
2026-05-04 10:46 9.57711 42.97900 36948 ft 479 kts 92°
2026-05-04 10:47 9.57307 43.04552 36941 ft 479 kts 92°
2026-05-04 10:47 9.56898 43.11292 36933 ft 480 kts 93°
2026-05-04 10:49 9.55246 43.38230 36932 ft 479 kts 93°
2026-05-04 10:50 9.54881 43.44963 36922 ft 479 kts 92°
2026-05-04 10:52 9.53835 43.71999 36916 ft 481 kts 91°
2026-05-04 10:52 9.53557 43.78775 36911 ft 481 kts 91°
2026-05-04 10:54 9.52583 44.05733 36894 ft 480 kts 84°
2026-05-04 10:56 9.62483 44.26921 36893 ft 481 kts 59°
2026-05-04 10:56 9.64192 44.29839 36889 ft 482 kts 59°
2026-05-04 10:57 9.67588 44.35703 36884 ft 483 kts 60°
2026-05-04 10:57 9.70974 44.41589 36886 ft 483 kts 60°
2026-05-04 10:58 9.74331 44.47430 36882 ft 481 kts 60°
2026-05-04 10:58 9.77681 44.53258 36883 ft 476 kts 60°
2026-05-04 10:59 9.81011 44.59051 36883 ft 475 kts 60°
2026-05-04 10:59 9.84344 44.64853 36894 ft 478 kts 60°
2026-05-04 11:00 9.87714 44.70722 36905 ft 484 kts 60°
2026-05-04 11:02 10.00615 44.93217 36891 ft 478 kts 60°
2026-05-04 11:05 10.25707 45.37095 36840 ft 481 kts 60°
2026-05-04 11:06 10.29055 45.42962 36837 ft 479 kts 60°
2026-05-04 11:06 10.32389 45.48808 36836 ft 477 kts 60°
2026-05-04 11:10 10.55700 45.89772 36830 ft 480 kts 60°
2026-05-04 11:12 10.69006 46.13225 36824 ft 483 kts 60°
2026-05-04 11:12 10.72357 46.19140 36823 ft 482 kts 60°
2026-05-04 11:13 10.75703 46.25050 36821 ft 482 kts 60°
2026-05-04 11:13 10.79052 46.30968 36822 ft 481 kts 60°
2026-05-04 11:14 10.82409 46.36860 36820 ft 481 kts 60°
2026-05-04 11:16 10.95946 46.60299 36822 ft 482 kts 60°
2026-05-04 11:16 10.99336 46.66188 36820 ft 482 kts 60°
2026-05-04 11:17 11.02708 46.72050 36826 ft 483 kts 60°
2026-05-04 11:19 11.16288 46.95688 36831 ft 483 kts 60°
2026-05-04 11:19 11.19634 47.01519 36831 ft 483 kts 60°
2026-05-04 11:20 11.23018 47.07422 36836 ft 483 kts 60°
2026-05-04 11:20 11.26381 47.13291 36837 ft 483 kts 60°
2026-05-04 11:22 11.39929 47.36961 36831 ft 484 kts 60°
2026-05-04 11:23 11.43320 47.42881 36832 ft 484 kts 59°
2026-05-04 11:25 11.55196 47.63657 36836 ft 485 kts 59°
2026-05-04 11:25 11.58569 47.69565 36836 ft 485 kts 59°
2026-05-04 11:27 11.73829 47.96342 36833 ft 484 kts 59°
2026-05-04 11:28 11.77169 48.02213 36833 ft 484 kts 59°
2026-05-04 11:28 11.80547 48.08154 36832 ft 484 kts 59°
2026-05-04 11:29 11.83902 48.14057 36833 ft 483 kts 59°
2026-05-04 11:29 11.87277 48.20001 36833 ft 483 kts 59°
2026-05-04 11:33 12.10967 48.61547 37053 ft 486 kts 58°
2026-05-04 11:33 12.12697 48.64505 37435 ft 484 kts 58°
2026-05-04 11:33 12.14416 48.67449 37865 ft 481 kts 58°
2026-05-04 11:34 12.16124 48.70380 38226 ft 479 kts 58°
2026-05-04 11:34 12.17826 48.73306 38539 ft 479 kts 58°
2026-05-04 11:34 12.19525 48.76229 38751 ft 479 kts 59°
2026-05-04 11:34 12.21209 48.79129 38781 ft 481 kts 59°
2026-05-04 11:35 12.24618 48.85003 38823 ft 479 kts 59°
2026-05-04 11:35 12.28006 48.90844 38830 ft 476 kts 59°
2026-05-04 11:36 12.31371 48.96648 38829 ft 474 kts 59°
2026-05-04 11:36 12.34690 49.02375 38834 ft 473 kts 59°
2026-05-04 11:37 12.38047 49.08172 38841 ft 474 kts 59°
2026-05-04 11:37 12.41411 49.13986 38836 ft 476 kts 59°
2026-05-04 11:38 12.44788 49.19822 38838 ft 477 kts 59°
2026-05-04 11:38 12.48153 49.25643 38835 ft 478 kts 59°
2026-05-04 11:39 12.51545 49.31516 38829 ft 479 kts 59°
2026-05-04 11:41 12.63439 49.52136 38832 ft 481 kts 59°
2026-05-04 11:41 12.66834 49.58029 38833 ft 481 kts 59°
2026-05-04 11:42 12.70231 49.63932 38833 ft 480 kts 59°
2026-05-04 11:42 12.73620 49.69823 38833 ft 480 kts 59°
2026-05-04 11:43 12.76985 49.75675 38828 ft 480 kts 59°
2026-05-04 11:43 12.80370 49.81567 38830 ft 480 kts 59°
2026-05-04 11:44 12.83751 49.87457 38829 ft 480 kts 59°
2026-05-04 11:44 12.87133 49.93351 38822 ft 480 kts 59°
2026-05-04 11:45 12.90516 49.99251 38827 ft 480 kts 60°
2026-05-04 11:45 12.93853 50.05075 38829 ft 480 kts 60°
2026-05-04 11:46 12.97234 50.10981 38826 ft 480 kts 60°
2026-05-04 11:46 13.00612 50.16885 38835 ft 481 kts 60°
2026-05-04 11:47 13.03997 50.22803 38836 ft 481 kts 60°
2026-05-04 11:47 13.07359 50.28686 38834 ft 481 kts 60°
2026-05-04 11:48 13.10746 50.34619 38831 ft 482 kts 60°
2026-05-04 11:48 13.14129 50.40548 38828 ft 482 kts 60°
2026-05-04 11:49 13.17513 50.46482 38826 ft 482 kts 60°
2026-05-04 11:49 13.20897 50.52420 38823 ft 482 kts 60°
2026-05-04 11:50 13.23703 50.57364 38833 ft 482 kts 60°
2026-05-04 11:50 13.27072 50.63313 38837 ft 482 kts 60°
2026-05-04 11:51 13.30437 50.69258 38836 ft 482 kts 60°
2026-05-04 11:51 13.33803 50.75209 38833 ft 482 kts 60°
2026-05-04 11:52 13.37167 50.81159 38832 ft 481 kts 60°
2026-05-04 11:52 13.40531 50.87113 38836 ft 482 kts 60°
2026-05-04 11:53 13.43897 50.93075 38832 ft 482 kts 60°
2026-05-04 11:53 13.47261 50.99037 38830 ft 482 kts 60°
2026-05-04 11:55 13.60659 51.22827 38822 ft 483 kts 60°
2026-05-04 11:56 13.64022 51.28808 38829 ft 483 kts 60°
2026-05-04 11:56 13.67382 51.34790 38827 ft 483 kts 61°
2026-05-04 11:57 13.70743 51.40777 38825 ft 483 kts 61°
2026-05-04 11:57 13.74075 51.46717 38827 ft 483 kts 61°
2026-05-04 11:58 13.77477 51.52678 38822 ft 483 kts 60°
2026-05-04 11:58 13.80923 51.58612 38825 ft 483 kts 60°
2026-05-04 11:59 13.84364 51.64547 38825 ft 483 kts 60°
2026-05-04 11:59 13.87795 51.70487 38825 ft 483 kts 60°
2026-05-04 12:00 13.91220 51.76431 38825 ft 483 kts 60°
2026-05-04 12:00 13.94653 51.82392 38824 ft 483 kts 60°
2026-05-04 12:01 13.98078 51.88344 38826 ft 483 kts 60°
2026-05-04 12:02 14.10000 52.09093 38824 ft 484 kts 60°
2026-05-04 12:03 14.13424 52.15061 38818 ft 483 kts 60°
2026-05-04 12:03 14.16846 52.21031 38818 ft 483 kts 60°
2026-05-04 12:04 14.20264 52.26997 38811 ft 483 kts 60°
2026-05-04 12:04 14.23681 52.32967 38815 ft 483 kts 60°
2026-05-04 12:05 14.27069 52.38891 38819 ft 483 kts 60°
2026-05-04 12:05 14.30479 52.44857 38819 ft 483 kts 61°
2026-05-04 12:06 14.33887 52.50825 38816 ft 483 kts 61°
2026-05-04 12:06 14.37293 52.56792 38818 ft 483 kts 62°
2026-05-04 12:07 14.40696 52.62759 38813 ft 483 kts 60°
2026-05-04 12:07 14.44100 52.68731 38819 ft 482 kts 61°
2026-05-04 12:08 14.47497 52.74698 38815 ft 482 kts 61°
2026-05-04 12:08 14.50891 52.80663 38815 ft 482 kts 61°
2026-05-04 12:09 14.54282 52.86627 38816 ft 482 kts 60°
2026-05-04 12:09 14.57674 52.92597 38816 ft 481 kts 61°
2026-05-04 12:10 14.61036 52.98522 38818 ft 481 kts 61°
2026-05-04 12:10 14.64505 53.04326 38810 ft 482 kts 53°
2026-05-04 12:11 14.69231 53.09237 38824 ft 485 kts 39°
2026-05-04 12:11 14.74914 53.13019 38810 ft 487 kts 32°
2026-05-04 12:12 14.80741 53.16612 38813 ft 488 kts 32°
2026-05-04 12:12 14.86559 53.20252 38812 ft 489 kts 33°
2026-05-04 12:14 15.09704 53.35022 38810 ft 489 kts 32°
2026-05-04 12:15 15.15490 53.38721 38814 ft 489 kts 33°
2026-05-04 12:15 15.21274 53.42421 38818 ft 488 kts 33°
2026-05-04 12:16 15.27061 53.46125 38808 ft 488 kts 32°
2026-05-04 12:16 15.32838 53.49826 38808 ft 488 kts 32°
2026-05-04 12:17 15.38610 53.53526 38805 ft 488 kts 32°
2026-05-04 12:17 15.44380 53.57231 38800 ft 488 kts 33°
2026-05-04 12:18 15.50100 53.61020 38804 ft 488 kts 34°
2026-05-04 12:18 15.55798 53.64843 38800 ft 488 kts 33°
2026-05-04 12:19 15.61466 53.68636 38790 ft 488 kts 33°
2026-05-04 12:19 15.67179 53.72449 38797 ft 488 kts 33°
2026-05-04 12:20 15.72910 53.76274 38799 ft 488 kts 33°
2026-05-04 12:20 15.78623 53.80092 38795 ft 489 kts 33°
2026-05-04 12:21 15.84344 53.83919 38798 ft 489 kts 33°
2026-05-04 12:21 15.90023 53.87712 38795 ft 488 kts 33°
2026-05-04 12:22 15.95758 53.91497 38787 ft 488 kts 32°
2026-05-04 12:22 16.01485 53.95267 38789 ft 488 kts 32°
2026-05-04 12:23 16.07217 53.99051 38789 ft 487 kts 32°
2026-05-04 12:23 16.12863 54.02784 38790 ft 487 kts 32°
2026-05-04 12:24 16.18582 54.06570 38782 ft 487 kts 32°
2026-05-04 12:24 16.24293 54.10352 38788 ft 486 kts 32°
2026-05-04 12:25 16.30000 54.14135 38783 ft 486 kts 32°
2026-05-04 12:25 16.35710 54.17922 38788 ft 486 kts 32°
2026-05-04 12:26 16.41418 54.21710 38783 ft 486 kts 32°
2026-05-04 12:26 16.47124 54.25500 38786 ft 487 kts 32°
2026-05-04 12:27 16.52834 54.29295 38782 ft 487 kts 32°
2026-05-04 12:27 16.58513 54.33073 38785 ft 487 kts 32°
2026-05-04 12:28 16.64230 54.36878 38786 ft 487 kts 32°
2026-05-04 12:28 16.69945 54.40685 38788 ft 488 kts 32°
2026-05-04 12:29 16.75667 54.44499 38787 ft 488 kts 32°
2026-05-04 12:29 16.81388 54.48316 38800 ft 488 kts 32°
2026-05-04 12:30 16.87110 54.52136 38803 ft 488 kts 32°
2026-05-04 12:30 16.92840 54.55960 38805 ft 488 kts 32°
2026-05-04 12:31 16.98568 54.59781 38815 ft 488 kts 31°
2026-05-04 12:31 17.04285 54.63598 38813 ft 488 kts 31°
2026-05-04 12:32 17.12866 54.69334 38815 ft 488 kts 31°
2026-05-04 12:33 17.18558 54.73143 38808 ft 488 kts 32°
2026-05-04 12:33 17.24277 54.76974 38806 ft 488 kts 31°
2026-05-04 12:34 17.29960 54.80873 38807 ft 489 kts 34°
2026-05-04 12:34 17.35480 54.85050 38796 ft 489 kts 35°
2026-05-04 12:35 17.40971 54.89256 38790 ft 489 kts 35°
2026-05-04 12:35 17.46486 54.93427 38778 ft 489 kts 34°
2026-05-04 12:36 17.51080 54.96879 38772 ft 489 kts 34°
2026-05-04 12:36 17.56536 55.00978 38774 ft 489 kts 35°
2026-05-04 12:37 17.62066 55.05140 38762 ft 489 kts 35°
2026-05-04 12:37 17.67592 55.09305 38752 ft 489 kts 35°
2026-05-04 12:38 17.73120 55.13474 38744 ft 490 kts 35°
2026-05-04 12:38 17.78657 55.17654 38743 ft 490 kts 35°
2026-05-04 12:39 17.84186 55.21841 38741 ft 490 kts 35°
2026-05-04 12:39 17.89718 55.26034 38738 ft 490 kts 35°
2026-05-04 12:40 17.95215 55.30206 38736 ft 491 kts 36°
2026-05-04 12:40 18.00744 55.34404 38732 ft 491 kts 35°
2026-05-04 12:41 18.06297 55.38623 38732 ft 492 kts 35°
2026-05-04 12:41 18.11895 55.42750 38730 ft 491 kts 32°
2026-05-04 12:42 18.17659 55.46606 38726 ft 491 kts 32°
2026-05-04 12:42 18.23431 55.50478 38726 ft 491 kts 32°
2026-05-04 12:43 18.29165 55.54394 38715 ft 491 kts 32°
2026-05-04 12:43 18.34866 55.58296 38713 ft 491 kts 32°
2026-05-04 12:44 18.40598 55.62226 38721 ft 491 kts 32°
2026-05-04 12:44 18.46327 55.66160 38718 ft 492 kts 32°
2026-05-04 12:45 18.52062 55.70102 38721 ft 492 kts 32°
2026-05-04 12:45 18.57797 55.74046 38720 ft 492 kts 32°
2026-05-04 12:46 18.63528 55.77991 38721 ft 492 kts 33°
2026-05-04 12:46 18.69263 55.81942 38714 ft 492 kts 32°
2026-05-04 12:47 18.75004 55.85901 38716 ft 493 kts 32°
2026-05-04 12:47 18.80710 55.89838 38718 ft 493 kts 32°
2026-05-04 12:48 18.86449 55.93802 38715 ft 493 kts 33°
2026-05-04 12:48 18.92229 55.97798 38714 ft 493 kts 32°
2026-05-04 12:49 18.98155 56.01085 38718 ft 490 kts 21°
2026-05-04 12:49 19.04620 56.03273 38720 ft 488 kts 13°
2026-05-04 12:50 19.11222 56.04992 38715 ft 488 kts 12°
2026-05-04 12:50 19.17824 56.06706 38715 ft 488 kts 13°
2026-05-04 12:51 19.24419 56.08462 38714 ft 489 kts 13°
2026-05-04 12:51 19.31015 56.10240 38720 ft 489 kts 13°
2026-05-04 12:52 19.37567 56.12010 38708 ft 489 kts 13°
2026-05-04 12:52 19.44161 56.13790 38716 ft 489 kts 13°
2026-05-04 12:53 19.50758 56.15571 38712 ft 489 kts 13°
2026-05-04 12:53 19.57356 56.17354 38719 ft 489 kts 13°
2026-05-04 12:54 19.63957 56.19139 38722 ft 489 kts 13°
2026-05-04 12:54 19.70557 56.20925 38716 ft 489 kts 13°
2026-05-04 12:55 19.77158 56.22714 38716 ft 489 kts 13°
2026-05-04 12:55 19.83765 56.24506 38725 ft 489 kts 13°
2026-05-04 12:56 19.90346 56.26292 38718 ft 488 kts 13°
2026-05-04 12:56 19.96954 56.27842 38714 ft 485 kts
2026-05-04 12:57 20.03610 56.28226 38722 ft 482 kts 358°
2026-05-04 12:57 20.10312 56.28174 38709 ft 481 kts 358°
2026-05-04 12:58 20.17011 56.28138 38711 ft 481 kts 358°
2026-05-04 12:58 20.23702 56.28141 38712 ft 481 kts 359°
2026-05-04 12:59 20.30392 56.28155 38716 ft 481 kts 359°
2026-05-04 12:59 20.37096 56.28169 38713 ft 481 kts 359°
2026-05-04 13:00 20.43793 56.28180 38710 ft 481 kts 358°
2026-05-04 13:00 20.50447 56.28191 38702 ft 480 kts 358°
2026-05-04 13:01 20.57118 56.28043 38701 ft 478 kts 352°
2026-05-04 13:01 20.63706 56.27121 38707 ft 477 kts 350°
2026-05-04 13:02 20.70277 56.26111 38703 ft 477 kts 350°
2026-05-04 13:02 20.76859 56.25131 38700 ft 477 kts 351°
2026-05-04 13:03 20.83396 56.24183 38712 ft 477 kts 351°
2026-05-04 13:03 20.89966 56.23235 38709 ft 476 kts 351°
2026-05-04 13:04 20.96533 56.22285 38719 ft 476 kts 351°
2026-05-04 13:04 21.03083 56.21335 38708 ft 476 kts 351°
2026-05-04 13:05 21.09640 56.20383 38727 ft 475 kts 351°
2026-05-04 13:05 21.16188 56.19432 38712 ft 475 kts 351°
2026-05-04 13:06 21.22737 56.18478 38718 ft 475 kts 350°
2026-05-04 13:06 21.29286 56.17526 38733 ft 474 kts 350°
2026-05-04 13:07 21.35830 56.16570 38727 ft 474 kts 350°
2026-05-04 13:07 21.42374 56.15612 38719 ft 474 kts 350°
2026-05-04 13:08 21.48870 56.14660 38717 ft 474 kts 350°
2026-05-04 13:08 21.55414 56.13701 38724 ft 474 kts 350°
2026-05-04 13:09 21.61959 56.12740 38736 ft 475 kts 350°
2026-05-04 13:09 21.68506 56.11779 38726 ft 475 kts 350°
2026-05-04 13:10 21.75053 56.10817 38739 ft 475 kts 350°
2026-05-04 13:10 21.81531 56.09863 38732 ft 475 kts 350°
2026-05-04 13:11 21.88098 56.08895 38730 ft 474 kts 350°
2026-05-04 13:11 21.94646 56.07930 38730 ft 474 kts 350°
2026-05-04 13:12 22.01172 56.06967 38736 ft 474 kts 349°
2026-05-04 13:12 22.07702 56.06000 38733 ft 474 kts 349°
2026-05-04 13:13 22.14230 56.05029 38733 ft 473 kts 349°
2026-05-04 13:13 22.20757 56.04057 38737 ft 473 kts 349°
2026-05-04 13:14 22.27282 56.03085 38744 ft 473 kts 349°
2026-05-04 13:14 22.33808 56.02111 38736 ft 474 kts 349°
2026-05-04 13:15 22.40333 56.01138 38743 ft 474 kts 349°
2026-05-04 13:15 22.46870 56.00170 38746 ft 474 kts 349°
2026-05-04 13:16 22.53406 55.99202 38752 ft 474 kts 349°
2026-05-04 13:16 22.59899 55.98237 38748 ft 474 kts 349°
2026-05-04 13:17 22.66447 55.97264 38745 ft 474 kts 349°
2026-05-04 13:17 22.72988 55.96290 38751 ft 474 kts 349°
2026-05-04 13:18 22.79524 55.95316 38765 ft 474 kts 349°
2026-05-04 13:18 22.86071 55.94341 38757 ft 475 kts 349°
2026-05-04 13:19 22.92610 55.93366 38758 ft 474 kts 349°
2026-05-04 13:19 22.99156 55.92390 38759 ft 475 kts 349°
2026-05-04 13:20 23.05685 55.91414 38770 ft 475 kts 348°
2026-05-04 13:20 23.12232 55.90429 38767 ft 475 kts 348°
2026-05-04 13:21 23.18733 55.89449 38764 ft 475 kts 348°
2026-05-04 13:21 23.25277 55.88463 38770 ft 475 kts 348°
2026-05-04 13:22 23.31819 55.87476 38776 ft 475 kts 348°
2026-05-04 13:22 23.38364 55.86487 38770 ft 475 kts 348°
2026-05-04 13:23 23.44906 55.85498 38775 ft 475 kts 348°
2026-05-04 13:23 23.51457 55.84507 38777 ft 475 kts 348°
2026-05-04 13:24 23.56900 55.83684 38786 ft 475 kts 348°
2026-05-04 13:24 23.63448 55.82701 38784 ft 475 kts 348°
2026-05-04 13:25 23.73366 55.81947 38786 ft 482 kts 360°
2026-05-04 13:25 23.80051 55.82640 38793 ft 483 kts
2026-05-04 13:26 23.86702 55.83396 38797 ft 483 kts
2026-05-04 13:26 23.93397 55.84116 38795 ft 484 kts
2026-05-04 13:27 24.00089 55.84810 38790 ft 484 kts
2026-05-04 13:27 24.06804 55.85505 38790 ft 485 kts
2026-05-04 13:28 24.13515 55.86202 38787 ft 485 kts
2026-05-04 13:28 24.20234 55.86902 38787 ft 485 kts
2026-05-04 13:29 24.26953 55.87603 38786 ft 485 kts
2026-05-04 13:29 24.33656 55.88630 38777 ft 491 kts 11°
2026-05-04 13:30 24.39895 55.91838 38801 ft 503 kts 30°
2026-05-04 13:30 24.45219 55.96920 38801 ft 510 kts 40°
2026-05-04 13:31 24.50377 56.02282 38779 ft 510 kts 39°
2026-05-04 13:31 24.55625 56.07531 38784 ft 509 kts 37°
2026-05-04 13:32 24.61471 56.11695 38782 ft 497 kts 19°
2026-05-04 13:32 24.67969 56.13778 38772 ft 486 kts
2026-05-04 13:33 24.74646 56.14429 38743 ft 473 kts 348°
2026-05-04 13:33 24.77790 56.13561 38755 ft 462 kts 333°
2026-05-04 13:33 24.80601 56.11908 38768 ft 456 kts 322°
2026-05-04 13:34 24.83058 56.09733 38743 ft 451 kts 310°
2026-05-04 13:34 24.84913 56.07061 38761 ft 431 kts 301°